Theta_e
282 282 283 283 284 284 284 285 286 287 288 290 291 293 294 295 296 297 299 299 301 303 304 307 309 312 311
283 283 284 284 284 285 285 285 286 286 288 290 291 292 293 294 295 296 298 299 300 301 304 306 309 314 313
284 284 285 285 285 285 286 286 286 287 289 290 291 291 292 292 294 295 296 297 298 300 303 305 308 313 312
285 285 286 286 286 285 286 286 288 288 289 290 290 290 290 291 292 293 296 298 300 301 302 305 307 311 311
286 287 287 287 286 285 286 287 288 289 289 289 289 289 290 290 291 292 296 298 300 301 304 305 308 312 313
288 288 288 286 286 286 287 288 288 289 289 289 289 290 290 290 291 293 294 297 298 300 303 307 311 314 313
287 287 287 286 286 287 288 288 288 289 288 289 289 289 290 290 291 292 294 296 298 299 304 310 311 311 310
286 287 287 288 288 289 288 288 288 288 289 289 289 290 289 288 289 291 293 295 298 299 307 311 312 314 317
285 286 288 288 288 288 287 287 288 288 289 289 289 288 287 288 291 294 297 297 298 299 306 311 313 313 318
286 286 286 287 287 287 286 287 287 288 289 289 288 286 286 288 290 290 293 295 297 301 307 312 314 316 319
284 286 286 285 285 286 286 287 287 288 288 288 287 286 286 287 288 289 292 296 298 301 308 313 315 317 320
284 285 285 285 285 286 287 287 287 287 288 288 287 286 286 286 288 291 297 302 305 309 312 314 317 318 318
283 285 285 285 285 286 287 287 287 288 288 288 287 287 287 286 288 289 296 311 313 314 315 314 316 317 315
281 282 283 285 286 287 287 287 287 288 289 288 288 287 287 288 287 290 296 302 312 314 315 315 315 315 314
280 281 282 284 286 287 287 287 288 288 288 287 285 288 290 288 288 292 309 308 310 310 311 311 313 313 312
279 280 282 283 285 287 287 288 288 288 285 284 285 286 288 288 288 293 301 302 304 305 304 303 302 306 305
278 279 281 283 286 287 287 288 289 286 284 284 285 285 286 287 288 291 297 297 298 299 300 298 298 300 300
Wind_Speed
35 36 36 33 37 39 39 38 38 37 38 38 37 38 40 42 40 40 41 43 43 43 42 43 42 45 46
33 34 33 33 35 38 39 38 36 39 36 38 39 39 41 41 41 42 40 39 40 42 43 41 43 41 40
32 32 32 33 34 35 35 36 35 36 39 37 37 39 43 43 43 41 41 42 43 45 44 43 44 38 43
29 31 30 31 30 31 32 34 34 35 35 33 37 41 41 42 40 35 34 38 38 41 43 44 47 40 46
27 25 26 26 27 31 30 38 36 35 35 32 38 38 38 38 36 31 28 28 29 33 37 39 41 39 50
26 22 25 28 32 31 32 24 18 28 33 44 33 36 38 33 32 32 31 27 24 28 30 32 32 36 41
31 29 31 31 35 35 26 31 31 41 36 32 36 35 37 39 38 34 31 26 23 22 26 28 26 30 46
32 34 33 36 31 30 33 36 37 37 30 14 33 32 46 47 36 28 27 25 19 22 24 26 35 40 32
32 33 33 33 33 33 26 25 16 30 33 21 25 38 34 38 27 12 13 19 19 25 27 31 28 32 34
32 30 28 31 30 27 28 21 19 15 26 24 23 18 7 11 21 36 25 23 23 26 26 30 31 27 34
29 25 24 27 28 27 26 27 27 25 37 30 16 17 10 11 26 27 24 16 22 28 25 31 36 31 41
24 21 19 22 24 28 33 35 32 36 43 38 22 21 16 12 9 23 18 18 24 25 30 38 33 27 36
22 23 21 26 28 30 32 31 30 32 32 35 32 26 20 14 8 13 10 15 23 26 30 36 35 37 41
23 26 25 24 24 26 29 29 30 31 30 30 29 24 16 20 16 14 18 5 25 21 24 28 33 39 51
23 23 24 24 23 25 26 26 22 23 29 31 33 18 17 21 12 19 15 19 28 32 32 26 35 43 55
23 22 23 22 23 25 24 23 22 21 21 26 26 16 11 13 29 17 23 24 29 36 35 33 27 32 50
23 24 24 22 22 23 23 23 21 19 21 25 22 13 9 9 17 34 22 31 32 34 31 37 36 37 51
Wind_Direction
292 299 302 305 304 304 301 298 297 299 301 299 295 292 292 290 285 277 267 258 256 256 254 254 250 247 246
295 299 302 307 304 300 300 298 297 298 302 300 297 294 293 291 285 279 274 259 257 255 256 252 247 240 238
289 297 300 305 303 301 300 301 300 300 300 299 297 295 293 289 287 278 268 260 257 254 252 247 246 247 232
289 294 298 304 302 304 306 306 300 301 298 296 297 293 290 291 291 281 268 257 251 246 245 243 240 246 240
288 293 302 306 311 308 302 304 311 305 303 300 301 292 291 292 288 291 271 258 243 238 240 243 240 241 234
300 295 302 305 303 300 300 308 311 313 310 301 302 294 293 293 289 287 274 262 246 242 243 241 235 244 238
296 290 291 290 297 296 302 306 299 305 305 296 306 294 298 299 293 284 271 258 246 243 236 228 226 251 246
296 296 290 294 289 299 306 301 298 303 307 293 307 299 309 302 297 284 263 250 239 240 228 217 222 230 231
300 299 297 301 304 304 301 305 306 309 318 298 316 311 309 299 312 319 270 259 236 232 216 211 226 242 217
310 301 301 302 307 302 297 295 303 308 318 312 318 327 314 287 317 309 295 265 244 232 209 203 218 201 192
311 301 305 305 308 309 302 295 298 299 307 311 296 310 295 301 311 300 294 258 218 216 201 200 200 189 158
310 304 307 310 311 310 316 313 302 293 303 303 286 294 295 299 279 307 298 209 178 186 179 195 192 171 150
320 316 303 310 309 305 310 310 309 307 308 311 301 298 298 288 283 290 310 162 167 158 158 165 171 155 143
315 314 314 309 308 312 312 319 320 320 324 325 323 320 299 329 305 290 268 150 129 139 144 158 166 153 147
318 318 316 316 312 318 317 321 320 321 331 339 342 348 304 334 333 321 104 88 109 113 114 123 134 144 143
316 317 314 314 313 319 324 327 324 335 344 344 348 348 344 1 16 1 84 96 104 109 111 105 94 122 133
316 316 316 314 317 324 328 334 334 350 347 346 358 5 24 8 1 33 96 103 104 96 109 109 110 124 129